"Date","Average Accumulated Water Year PPT (in)","Average SWE (in)"
10/01/1981,0.756,0.000
10/02/1981,0.980,0.013
10/03/1981,1.044,0.004
10/04/1981,1.185,0.000
10/05/1981,1.298,0.000
10/06/1981,1.673,0.000
10/07/1981,1.731,0.000
10/08/1981,1.731,0.000
10/09/1981,1.731,0.000
10/10/1981,1.742,0.000
10/11/1981,1.745,0.000
10/12/1981,1.745,0.000
10/13/1981,1.745,0.000
10/14/1981,2.075,0.000
10/15/1981,2.392,0.000
10/16/1981,2.393,0.000
10/17/1981,2.436,0.000
10/18/1981,3.490,0.000
10/19/1981,3.566,0.015
10/20/1981,3.569,0.007
10/21/1981,3.575,0.004
10/22/1981,3.602,0.005
10/23/1981,3.631,0.018
10/24/1981,3.657,0.033
10/25/1981,3.730,0.084
10/26/1981,3.737,0.080
10/27/1981,3.737,0.056
10/28/1981,3.737,0.007
10/29/1981,3.738,0.002
10/30/1981,3.741,0.000
10/31/1981,3.745,0.000
11/01/1981,3.746,0.000
11/02/1981,3.746,0.000
11/03/1981,3.746,0.000
11/04/1981,3.747,0.000
11/05/1981,3.778,0.000
11/06/1981,3.890,0.000
11/07/1981,3.890,0.000
11/08/1981,3.890,0.000
11/09/1981,3.890,0.000
11/10/1981,3.891,0.000
11/11/1981,3.891,0.000
11/12/1981,3.891,0.000
11/13/1981,3.891,0.000
11/14/1981,3.891,0.000
11/15/1981,3.891,0.000
11/16/1981,3.891,0.000
11/17/1981,3.893,0.000
11/18/1981,3.897,0.000
11/19/1981,3.965,0.005
11/20/1981,4.127,0.127
11/21/1981,4.129,0.128
11/22/1981,4.129,0.128
11/23/1981,4.129,0.128
11/24/1981,4.129,0.129
11/25/1981,4.137,0.128
11/26/1981,4.268,0.136
11/27/1981,4.593,0.144
11/28/1981,4.593,0.144
11/29/1981,4.593,0.144
11/30/1981,4.593,0.144
12/01/1981,4.721,0.269
12/02/1981,4.911,0.358
12/03/1981,4.945,0.383
12/04/1981,4.953,0.390
12/05/1981,4.955,0.391
12/06/1981,4.955,0.391
12/07/1981,4.959,0.385
12/08/1981,4.990,0.403
12/09/1981,5.011,0.423
12/10/1981,5.011,0.423
12/11/1981,5.011,0.423
12/12/1981,5.011,0.423
12/13/1981,5.012,0.423
12/14/1981,5.168,0.564
12/15/1981,5.198,0.594
12/16/1981,5.222,0.616
12/17/1981,5.247,0.639
12/18/1981,5.289,0.682
12/19/1981,5.306,0.699
12/20/1981,5.306,0.699
12/21/1981,5.475,0.862
12/22/1981,5.475,0.862
12/23/1981,5.475,0.863
12/24/1981,5.476,0.864
12/25/1981,5.477,0.864
12/26/1981,5.477,0.864
12/27/1981,5.656,1.032
12/28/1981,5.660,1.037
12/29/1981,5.661,1.038
12/30/1981,5.661,1.039
12/31/1981,6.067,1.426
01/01/1982,6.352,1.708
01/02/1982,6.368,1.724
01/03/1982,6.689,2.038
01/04/1982,6.966,2.303
01/05/1982,7.080,2.412
01/06/1982,7.080,2.412
01/07/1982,7.080,2.412
01/08/1982,7.094,2.427
01/09/1982,7.112,2.445
01/10/1982,7.187,2.519
01/11/1982,7.235,2.571
01/12/1982,7.235,2.572
01/13/1982,7.251,2.589
01/14/1982,7.276,2.616
01/15/1982,7.281,2.622
01/16/1982,7.386,2.724
01/17/1982,7.388,2.726
01/18/1982,7.403,2.741
01/19/1982,7.420,2.757
01/20/1982,7.423,2.761
01/21/1982,7.546,2.878
01/22/1982,7.580,2.912
01/23/1982,7.940,3.253
01/24/1982,8.006,3.318
01/25/1982,8.010,3.322
01/26/1982,8.010,3.323
01/27/1982,8.011,3.323
01/28/1982,8.019,3.331
01/29/1982,8.029,3.342
01/30/1982,8.158,3.463
01/31/1982,8.162,3.467
02/01/1982,8.167,3.473
02/02/1982,8.195,3.500
02/03/1982,8.242,3.544
02/04/1982,8.242,3.544
02/05/1982,8.252,3.552
02/06/1982,8.255,3.555
02/07/1982,8.262,3.562
02/08/1982,8.263,3.563
02/09/1982,8.263,3.564
02/10/1982,8.263,3.564
02/11/1982,8.263,3.564
02/12/1982,8.264,3.565
02/13/1982,8.265,3.565
02/14/1982,8.292,3.591
02/15/1982,8.293,3.592
02/16/1982,8.293,3.588
02/17/1982,8.293,3.588
02/18/1982,8.293,3.588
02/19/1982,8.293,3.583
02/20/1982,8.293,3.502
02/21/1982,8.296,3.414
02/22/1982,8.296,3.414
02/23/1982,8.297,3.385
02/24/1982,8.338,3.445
02/25/1982,8.372,3.477
02/26/1982,8.372,3.477
02/27/1982,8.373,3.478
02/28/1982,8.374,3.479
03/01/1982,8.405,3.505
03/02/1982,8.407,3.506
03/03/1982,8.407,3.506
03/04/1982,8.436,3.525
03/05/1982,8.440,3.528
03/06/1982,8.440,3.528
03/07/1982,8.441,3.528
03/08/1982,8.463,3.545
03/09/1982,8.625,3.710
03/10/1982,8.693,3.766
03/11/1982,8.693,3.765
03/12/1982,8.699,3.754
03/13/1982,9.197,3.776
03/14/1982,9.198,3.756
03/15/1982,9.198,3.688
03/16/1982,9.284,3.652
03/17/1982,9.554,3.807
03/18/1982,9.556,3.684
03/19/1982,9.556,3.639
03/20/1982,9.646,3.728
03/21/1982,9.822,3.931
03/22/1982,9.832,3.930
03/23/1982,9.832,3.867
03/24/1982,9.856,3.651
03/25/1982,9.859,3.615
03/26/1982,9.900,3.661
03/27/1982,9.906,3.664
03/28/1982,9.906,3.664
03/29/1982,9.906,3.566
03/30/1982,10.040,3.166
03/31/1982,10.282,2.701
04/01/1982,10.282,2.557
04/02/1982,10.317,2.494
04/03/1982,11.217,2.440
04/04/1982,11.461,2.584
04/05/1982,11.461,2.584
04/06/1982,11.487,2.600
04/07/1982,11.487,2.600
04/08/1982,11.487,2.600
04/09/1982,11.487,2.599
04/10/1982,11.493,2.575
04/11/1982,11.515,2.562
04/12/1982,11.554,2.388
04/13/1982,11.822,2.241
04/14/1982,11.830,2.187
04/15/1982,11.880,1.831
04/16/1982,12.109,1.460
04/17/1982,12.404,1.249
04/18/1982,12.457,1.252
04/19/1982,12.505,1.106
04/20/1982,12.777,1.301
04/21/1982,12.785,1.304
04/22/1982,12.785,1.195
04/23/1982,12.785,0.912
04/24/1982,12.785,0.465
04/25/1982,12.801,0.215
04/26/1982,12.995,0.110
04/27/1982,13.002,0.107
04/28/1982,13.002,0.096
04/29/1982,13.002,0.071
04/30/1982,13.002,0.037
05/01/1982,13.003,0.017
05/02/1982,13.003,0.002
05/03/1982,13.003,0.000
05/04/1982,13.005,0.000
05/05/1982,13.095,0.000
05/06/1982,13.498,0.000
05/07/1982,13.843,0.000
05/08/1982,13.843,0.000
05/09/1982,13.873,0.000
05/10/1982,14.080,0.000
05/11/1982,14.106,0.000
05/12/1982,14.147,0.000
05/13/1982,14.262,0.000
05/14/1982,14.290,0.000
05/15/1982,14.302,0.000
05/16/1982,14.443,0.000
05/17/1982,14.550,0.000
05/18/1982,14.774,0.000
05/19/1982,14.798,0.000
05/20/1982,14.844,0.000
05/21/1982,14.855,0.000
05/22/1982,14.964,0.000
05/23/1982,15.019,0.000
05/24/1982,15.020,0.000
05/25/1982,15.020,0.000
05/26/1982,15.022,0.000
05/27/1982,15.097,0.000
05/28/1982,15.175,0.000
05/29/1982,15.178,0.000
05/30/1982,15.197,0.000
05/31/1982,15.248,0.000
06/01/1982,15.280,0.000
06/02/1982,15.280,0.000
06/03/1982,15.280,0.000
06/04/1982,15.280,0.000
06/05/1982,15.280,0.000
06/06/1982,15.285,0.000
06/07/1982,15.351,0.000
06/08/1982,15.351,0.000
06/09/1982,15.388,0.000
06/10/1982,15.708,0.000
06/11/1982,15.708,0.000
06/12/1982,15.770,0.000
06/13/1982,15.797,0.000
06/14/1982,15.830,0.000
06/15/1982,16.614,0.000
06/16/1982,16.674,0.000
06/17/1982,16.742,0.000
06/18/1982,16.807,0.000
06/19/1982,16.833,0.000
06/20/1982,17.046,0.000
06/21/1982,17.213,0.000
06/22/1982,17.373,0.000
06/23/1982,17.376,0.000
06/24/1982,17.415,0.000
06/25/1982,17.641,0.000
06/26/1982,17.668,0.000
06/27/1982,17.668,0.000
06/28/1982,17.689,0.000
06/29/1982,18.022,0.000
06/30/1982,18.024,0.000
07/01/1982,18.024,0.000
07/02/1982,18.024,0.000
07/03/1982,18.065,0.000
07/04/1982,18.242,0.000
07/05/1982,18.244,0.000
07/06/1982,18.376,0.000
07/07/1982,18.598,0.000
07/08/1982,18.598,0.000
07/09/1982,18.652,0.000
07/10/1982,19.147,0.000
07/11/1982,21.393,0.000
07/12/1982,21.541,0.000
07/13/1982,21.635,0.000
07/14/1982,21.728,0.000
07/15/1982,21.992,0.000
07/16/1982,22.974,0.000
07/17/1982,23.167,0.000
07/18/1982,23.556,0.000
07/19/1982,23.557,0.000
07/20/1982,23.557,0.000
07/21/1982,23.580,0.000
07/22/1982,23.723,0.000
07/23/1982,23.723,0.000
07/24/1982,23.723,0.000
07/25/1982,23.729,0.000
07/26/1982,23.756,0.000
07/27/1982,23.951,0.000
07/28/1982,23.976,0.000
07/29/1982,24.012,0.000
07/30/1982,24.405,0.000
07/31/1982,24.405,0.000
08/01/1982,24.430,0.000
08/02/1982,24.616,0.000
08/03/1982,24.777,0.000
08/04/1982,25.101,0.000
08/05/1982,25.101,0.000
08/06/1982,25.103,0.000
08/07/1982,25.107,0.000
08/08/1982,25.113,0.000
08/09/1982,25.171,0.000
08/10/1982,25.175,0.000
08/11/1982,25.175,0.000
08/12/1982,25.175,0.000
08/13/1982,25.175,0.000
08/14/1982,25.176,0.000
08/15/1982,25.176,0.000
08/16/1982,25.176,0.000
08/17/1982,25.189,0.000
08/18/1982,25.190,0.000
08/19/1982,25.223,0.000
08/20/1982,25.229,0.000
08/21/1982,25.278,0.000
08/22/1982,25.480,0.000
08/23/1982,25.549,0.000
08/24/1982,25.719,0.000
08/25/1982,26.095,0.000
08/26/1982,26.218,0.000
08/27/1982,26.722,0.000
08/28/1982,26.737,0.000
08/29/1982,26.955,0.000
08/30/1982,27.359,0.000
08/31/1982,27.385,0.000
09/01/1982,27.714,0.000
09/02/1982,27.966,0.000
09/03/1982,27.973,0.000
09/04/1982,27.975,0.000
09/05/1982,28.222,0.000
09/06/1982,28.937,0.000
09/07/1982,28.939,0.000
09/08/1982,28.939,0.000
09/09/1982,28.939,0.000
09/10/1982,28.948,0.000
09/11/1982,29.058,0.000
09/12/1982,29.069,0.000
09/13/1982,29.445,0.000
09/14/1982,29.856,0.000
09/15/1982,30.173,0.000
09/16/1982,30.286,0.000
09/17/1982,30.460,0.000
09/18/1982,30.595,0.000
09/19/1982,30.614,0.000
09/20/1982,30.951,0.000
09/21/1982,30.974,0.000
09/22/1982,30.982,0.000
09/23/1982,31.000,0.000
09/24/1982,31.444,0.000
09/25/1982,31.499,0.000
09/26/1982,31.499,0.000
09/27/1982,31.500,0.000
09/28/1982,31.500,0.000
09/29/1982,31.506,0.000
09/30/1982,31.692,0.000
10/01/1982,0.060,0.000
10/02/1982,0.111,0.000
10/03/1982,0.227,0.000
10/04/1982,0.227,0.000
10/05/1982,0.285,0.000
10/06/1982,0.758,0.000
10/07/1982,1.106,0.000
10/08/1982,1.117,0.000
10/09/1982,1.210,0.000
10/10/1982,1.669,0.000
10/11/1982,1.677,0.000
10/12/1982,1.746,0.000
10/13/1982,1.792,0.000
10/14/1982,1.808,0.000
10/15/1982,1.842,0.000
10/16/1982,1.855,0.000
10/17/1982,1.876,0.000
10/18/1982,1.966,0.000
10/19/1982,2.075,0.000
10/20/1982,2.947,0.000
10/21/1982,3.135,0.073
10/22/1982,3.135,0.072
10/23/1982,3.135,0.058
10/24/1982,3.135,0.024
10/25/1982,3.135,0.004
10/26/1982,3.135,0.000
10/27/1982,3.147,0.000
10/28/1982,3.244,0.000
10/29/1982,3.309,0.000
10/30/1982,3.309,0.000
10/31/1982,3.328,0.000
11/01/1982,3.447,0.000
11/02/1982,3.637,0.000
11/03/1982,3.684,0.000
11/04/1982,3.732,0.009
11/05/1982,3.793,0.054
11/06/1982,3.802,0.058
11/07/1982,3.802,0.056
11/08/1982,3.802,0.014
11/09/1982,3.839,0.013
11/10/1982,4.252,0.076
11/11/1982,4.613,0.049
11/12/1982,5.735,0.140
11/13/1982,5.782,0.167
11/14/1982,5.857,0.222
11/15/1982,5.858,0.223
11/16/1982,5.858,0.223
11/17/1982,5.858,0.222
11/18/1982,5.869,0.222
11/19/1982,5.983,0.149
11/20/1982,6.158,0.089
11/21/1982,6.228,0.067
11/22/1982,6.229,0.068
11/23/1982,6.242,0.074
11/24/1982,6.254,0.085
11/25/1982,6.256,0.086
11/26/1982,6.320,0.143
11/27/1982,6.320,0.143
11/28/1982,6.340,0.154
11/29/1982,6.489,0.208
11/30/1982,6.495,0.189
12/01/1982,6.560,0.158
12/02/1982,6.697,0.074
12/03/1982,6.797,0.032
12/04/1982,6.804,0.026
12/05/1982,6.912,0.030
12/06/1982,7.575,0.376
12/07/1982,7.576,0.376
12/08/1982,7.576,0.376
12/09/1982,7.584,0.385
12/10/1982,7.585,0.385
12/11/1982,7.621,0.413
12/12/1982,7.621,0.413
12/13/1982,7.621,0.413
12/14/1982,7.621,0.413
12/15/1982,7.628,0.417
12/16/1982,7.634,0.423
12/17/1982,7.634,0.423
12/18/1982,7.641,0.430
12/19/1982,7.824,0.591
12/20/1982,7.859,0.627
12/21/1982,7.860,0.628
12/22/1982,7.861,0.630
12/23/1982,7.875,0.627
12/24/1982,8.172,0.578
12/25/1982,8.541,0.476
12/26/1982,8.614,0.485
12/27/1982,8.622,0.486
12/28/1982,9.054,0.603
12/29/1982,9.185,0.693
12/30/1982,9.185,0.693
12/31/1982,9.193,0.698
01/01/1983,9.198,0.701
01/02/1983,9.205,0.710
01/03/1983,9.210,0.713
01/04/1983,9.210,0.715
01/05/1983,9.212,0.716
01/06/1983,9.220,0.725
01/07/1983,9.571,1.259
01/08/1983,9.571,1.259
01/09/1983,9.573,1.260
01/10/1983,9.698,1.302
01/11/1983,9.762,1.312
01/12/1983,9.780,1.332
01/13/1983,9.811,1.354
01/14/1983,9.843,1.395
01/15/1983,9.994,1.566
01/16/1983,9.994,1.566
01/17/1983,10.006,1.587
01/18/1983,10.007,1.588
01/19/1983,10.007,1.588
01/20/1983,10.007,1.588
01/21/1983,10.007,1.588
01/22/1983,10.019,1.597
01/23/1983,10.106,1.698
01/24/1983,10.118,1.703
01/25/1983,10.125,1.715
01/26/1983,10.132,1.723
01/27/1983,10.132,1.723
01/28/1983,10.136,1.724
01/29/1983,10.145,1.738
01/30/1983,10.422,2.051
01/31/1983,10.437,2.061
02/01/1983,10.437,2.062
02/02/1983,10.474,2.109
02/03/1983,10.940,2.671
02/04/1983,10.957,2.685
02/05/1983,10.963,2.689
02/06/1983,11.040,2.761
02/07/1983,11.054,2.774
02/08/1983,11.054,2.774
02/09/1983,11.056,2.777
02/10/1983,11.095,2.828
02/11/1983,11.103,2.835
02/12/1983,11.104,2.836
02/13/1983,11.106,2.837
02/14/1983,11.109,2.701
02/15/1983,11.109,2.570
02/16/1983,11.153,2.548
02/17/1983,11.285,2.543
02/18/1983,11.286,2.484
02/19/1983,11.297,2.462
02/20/1983,11.298,2.360
02/21/1983,11.298,2.210
02/22/1983,11.336,2.175
02/23/1983,11.368,2.181
02/24/1983,11.385,2.183
02/25/1983,11.388,2.187
02/26/1983,11.388,2.187
02/27/1983,11.388,2.185
02/28/1983,11.394,1.882
03/01/1983,11.409,1.813
03/02/1983,11.448,1.814
03/03/1983,11.459,1.702
03/04/1983,11.588,1.514
03/05/1983,11.626,1.329
03/06/1983,11.788,1.138
03/07/1983,12.129,0.948
03/08/1983,12.207,0.846
03/09/1983,12.673,1.257
03/10/1983,12.764,1.316
03/11/1983,12.764,1.316
03/12/1983,12.766,1.317
03/13/1983,12.774,1.300
03/14/1983,12.785,1.216
03/15/1983,12.788,1.213
03/16/1983,12.830,1.240
03/17/1983,12.874,1.218
03/18/1983,12.969,1.225
03/19/1983,13.419,1.664
03/20/1983,13.485,1.711
03/21/1983,13.514,1.739
03/22/1983,13.515,1.740
03/23/1983,13.516,1.741
03/24/1983,13.516,1.741
03/25/1983,13.516,1.741
03/26/1983,13.518,1.743
03/27/1983,13.598,1.780
03/28/1983,13.599,1.778
03/29/1983,13.599,1.778
03/30/1983,13.599,1.778
03/31/1983,13.605,1.626
04/01/1983,13.613,1.506
04/02/1983,13.691,1.282
04/03/1983,13.836,1.233
04/04/1983,13.866,1.206
04/05/1983,13.866,1.190
04/06/1983,13.875,1.087
04/07/1983,13.992,1.148
04/08/1983,13.992,1.138
04/09/1983,14.068,1.017
04/10/1983,14.628,1.271
04/11/1983,14.632,1.195
04/12/1983,14.640,1.153
04/13/1983,14.976,1.040
04/14/1983,15.430,0.939
04/15/1983,15.635,1.025
04/16/1983,15.655,1.044
04/17/1983,15.659,1.048
04/18/1983,15.659,1.048
04/19/1983,15.661,1.049
04/20/1983,15.661,1.043
04/21/1983,15.661,0.939
04/22/1983,15.663,0.768
04/23/1983,15.672,0.646
04/24/1983,15.672,0.602
04/25/1983,15.672,0.490
04/26/1983,15.672,0.262
04/27/1983,15.672,0.102
04/28/1983,15.684,0.061
04/29/1983,15.731,0.037
04/30/1983,15.732,0.024
05/01/1983,15.745,0.022
05/02/1983,16.186,0.013
05/03/1983,16.202,0.011
05/04/1983,16.202,0.006
05/05/1983,16.205,0.006
05/06/1983,16.269,0.003
05/07/1983,17.023,0.001
05/08/1983,17.188,0.001
05/09/1983,17.188,0.001
05/10/1983,17.188,0.000
05/11/1983,17.188,0.000
05/12/1983,17.190,0.000
05/13/1983,17.306,0.000
05/14/1983,17.505,0.000
05/15/1983,17.512,0.000
05/16/1983,17.513,0.000
05/17/1983,17.513,0.000
05/18/1983,17.526,0.000
05/19/1983,17.932,0.000
05/20/1983,18.038,0.000
05/21/1983,18.137,0.000
05/22/1983,18.744,0.000
05/23/1983,19.736,0.000
05/24/1983,19.759,0.000
05/25/1983,19.960,0.000
05/26/1983,19.960,0.000
05/27/1983,19.960,0.000
05/28/1983,19.991,0.000
05/29/1983,20.676,0.000
05/30/1983,20.986,0.000
05/31/1983,21.123,0.000
06/01/1983,21.130,0.000
06/02/1983,21.153,0.000
06/03/1983,21.233,0.000
06/04/1983,21.746,0.000
06/05/1983,21.885,0.000
06/06/1983,21.891,0.000
06/07/1983,21.893,0.000
06/08/1983,21.896,0.000
06/09/1983,22.085,0.000
06/10/1983,22.085,0.000
06/11/1983,22.085,0.000
06/12/1983,22.085,0.000
06/13/1983,22.097,0.000
06/14/1983,22.113,0.000
06/15/1983,22.395,0.000
06/16/1983,22.572,0.000
06/17/1983,22.584,0.000
06/18/1983,22.584,0.000
06/19/1983,22.584,0.000
06/20/1983,22.584,0.000
06/21/1983,22.584,0.000
06/22/1983,23.036,0.000
06/23/1983,23.036,0.000
06/24/1983,23.036,0.000
06/25/1983,23.044,0.000
06/26/1983,23.100,0.000
06/27/1983,23.336,0.000
06/28/1983,23.400,0.000
06/29/1983,23.408,0.000
06/30/1983,23.511,0.000
07/01/1983,23.750,0.000
07/02/1983,23.751,0.000
07/03/1983,23.882,0.000
07/04/1983,24.567,0.000
07/05/1983,24.583,0.000
07/06/1983,24.583,0.000
07/07/1983,24.592,0.000
07/08/1983,24.593,0.000
07/09/1983,24.593,0.000
07/10/1983,24.594,0.000
07/11/1983,24.594,0.000
07/12/1983,24.605,0.000
07/13/1983,24.605,0.000
07/14/1983,24.605,0.000
07/15/1983,24.605,0.000
07/16/1983,24.611,0.000
07/17/1983,24.644,0.000
07/18/1983,24.780,0.000
07/19/1983,24.790,0.000
07/20/1983,25.026,0.000
07/21/1983,25.111,0.000
07/22/1983,25.321,0.000
07/23/1983,25.321,0.000
07/24/1983,25.321,0.000
07/25/1983,25.321,0.000
07/26/1983,25.321,0.000
07/27/1983,25.323,0.000
07/28/1983,25.703,0.000
07/29/1983,25.864,0.000
07/30/1983,25.866,0.000
07/31/1983,26.284,0.000
08/01/1983,26.402,0.000
08/02/1983,26.402,0.000
08/03/1983,26.849,0.000
08/04/1983,26.884,0.000
08/05/1983,26.884,0.000
08/06/1983,26.896,0.000
08/07/1983,26.905,0.000
08/08/1983,26.910,0.000
08/09/1983,26.912,0.000
08/10/1983,27.322,0.000
08/11/1983,28.413,0.000
08/12/1983,28.413,0.000
08/13/1983,28.418,0.000
08/14/1983,28.452,0.000
08/15/1983,28.466,0.000
08/16/1983,28.510,0.000
08/17/1983,28.883,0.000
08/18/1983,28.913,0.000
08/19/1983,28.924,0.000
08/20/1983,28.925,0.000
08/21/1983,28.992,0.000
08/22/1983,29.414,0.000
08/23/1983,29.414,0.000
08/24/1983,29.416,0.000
08/25/1983,29.445,0.000
08/26/1983,29.459,0.000
08/27/1983,29.459,0.000
08/28/1983,29.475,0.000
08/29/1983,29.510,0.000
08/30/1983,30.015,0.000
08/31/1983,30.045,0.000
09/01/1983,30.045,0.000
09/02/1983,30.048,0.000
09/03/1983,30.049,0.000
09/04/1983,30.097,0.000
09/05/1983,30.220,0.000
09/06/1983,30.875,0.000
09/07/1983,31.039,0.000
09/08/1983,31.039,0.000
09/09/1983,31.048,0.000
09/10/1983,31.146,0.000
09/11/1983,31.329,0.000
09/12/1983,31.405,0.000
09/13/1983,31.466,0.000
09/14/1983,31.496,0.000
09/15/1983,31.531,0.000
09/16/1983,32.265,0.000
09/17/1983,32.407,0.000
09/18/1983,32.943,0.000
09/19/1983,32.986,0.000
09/20/1983,34.685,0.000
09/21/1983,34.800,0.000
09/22/1983,34.842,0.000
09/23/1983,34.911,0.000
09/24/1983,34.911,0.000
09/25/1983,34.918,0.000
09/26/1983,34.923,0.000
09/27/1983,34.923,0.000
09/28/1983,34.924,0.000
09/29/1983,34.924,0.000
09/30/1983,34.926,0.000
10/01/1983,0.000,0.000
10/02/1983,0.142,0.000
10/03/1983,0.375,0.000
10/04/1983,0.458,0.000
10/05/1983,0.476,0.000
10/06/1983,0.553,0.000
10/07/1983,0.635,0.000
10/08/1983,1.505,0.000
10/09/1983,1.505,0.000
10/10/1983,1.505,0.000
10/11/1983,1.567,0.000
10/12/1983,2.914,0.000
10/13/1983,3.155,0.000
10/14/1983,3.423,0.015
10/15/1983,3.479,0.011
10/16/1983,3.630,0.005
10/17/1983,3.633,0.001
10/18/1983,3.633,0.000
10/19/1983,3.637,0.000
10/20/1983,3.645,0.000
10/21/1983,3.645,0.000
10/22/1983,3.661,0.000
10/23/1983,3.669,0.000
10/24/1983,3.669,0.000
10/25/1983,3.730,0.000
10/26/1983,3.741,0.000
10/27/1983,3.741,0.000
10/28/1983,3.742,0.000
10/29/1983,3.753,0.000
10/30/1983,3.753,0.000
10/31/1983,3.754,0.000
11/01/1983,3.762,0.000
11/02/1983,3.774,0.000
11/03/1983,3.777,0.000
11/04/1983,3.777,0.000
11/05/1983,3.777,0.000
11/06/1983,3.780,0.000
11/07/1983,3.780,0.000
11/08/1983,3.786,0.000
11/09/1983,3.985,0.002
11/10/1983,4.561,0.268
11/11/1983,4.572,0.272
11/12/1983,4.572,0.272
11/13/1983,4.573,0.272
11/14/1983,4.601,0.278
11/15/1983,4.859,0.246
11/16/1983,4.876,0.218
11/17/1983,4.876,0.218
11/18/1983,4.879,0.218
11/19/1983,5.005,0.201
11/20/1983,5.563,0.132
11/21/1983,5.879,0.109
11/22/1983,5.924,0.120
11/23/1983,6.167,0.161
11/24/1983,6.408,0.150
11/25/1983,6.411,0.152
11/26/1983,6.411,0.152
11/27/1983,6.456,0.182
11/28/1983,6.853,0.552
11/29/1983,7.096,0.769
11/30/1983,7.120,0.793
12/01/1983,7.153,0.826
12/02/1983,7.154,0.827
12/03/1983,7.158,0.832
12/04/1983,7.158,0.832
12/05/1983,7.213,0.895
12/06/1983,7.233,0.918
12/07/1983,7.243,0.926
12/08/1983,7.243,0.927
12/09/1983,7.246,0.931
12/10/1983,7.255,0.944
12/11/1983,7.474,1.181
12/12/1983,7.851,1.511
12/13/1983,7.853,1.513
12/14/1983,7.972,1.634
12/15/1983,8.337,2.051
12/16/1983,8.408,2.112
12/17/1983,8.410,2.114
12/18/1983,8.411,2.114
12/19/1983,8.411,2.115
12/20/1983,8.424,2.139
12/21/1983,8.481,2.210
12/22/1983,8.606,2.333
12/23/1983,8.608,2.334
12/24/1983,8.621,2.346
12/25/1983,8.648,2.368
12/26/1983,8.652,2.373
12/27/1983,8.668,2.391
12/28/1983,8.717,2.442
12/29/1983,8.726,2.449
12/30/1983,8.726,2.449
12/31/1983,8.729,2.452
01/01/1984,8.731,2.453
01/02/1984,8.735,2.457
01/03/1984,8.739,2.459
01/04/1984,8.742,2.461
01/05/1984,8.771,2.484
01/06/1984,8.801,2.516
01/07/1984,8.803,2.517
01/08/1984,8.846,2.555
01/09/1984,8.849,2.558
01/10/1984,8.856,2.566
01/11/1984,8.860,2.570
01/12/1984,8.924,2.622
01/13/1984,8.985,2.684
01/14/1984,9.011,2.713
01/15/1984,9.012,2.714
01/16/1984,9.042,2.739
01/17/1984,9.046,2.742
01/18/1984,9.046,2.742
01/19/1984,9.046,2.742
01/20/1984,9.046,2.743
01/21/1984,9.046,2.743
01/22/1984,9.048,2.745
01/23/1984,9.062,2.756
01/24/1984,9.123,2.808
01/25/1984,9.128,2.811
01/26/1984,9.173,2.846
01/27/1984,9.193,2.860
01/28/1984,9.245,2.912
01/29/1984,9.327,2.999
01/30/1984,9.336,3.008
01/31/1984,9.337,3.009
02/01/1984,9.340,3.013
02/02/1984,9.340,3.013
02/03/1984,9.353,3.019
02/04/1984,9.433,3.082
02/05/1984,9.461,3.110
02/06/1984,9.463,3.113
02/07/1984,9.464,3.113
02/08/1984,9.464,3.113
02/09/1984,9.464,3.113
02/10/1984,9.464,3.107
02/11/1984,9.466,3.041
02/12/1984,9.923,2.866
02/13/1984,10.687,2.644
02/14/1984,10.687,2.468
02/15/1984,10.687,2.355
02/16/1984,10.687,2.174
02/17/1984,10.688,2.084
02/18/1984,10.704,2.037
02/19/1984,11.052,2.320
02/20/1984,11.081,2.338
02/21/1984,11.081,2.337
02/22/1984,11.081,2.303
02/23/1984,11.081,2.020
02/24/1984,11.082,1.925
02/25/1984,11.119,1.927
02/26/1984,11.119,1.927
02/27/1984,11.119,1.927
02/28/1984,11.119,1.927
02/29/1984,11.129,1.936
03/01/1984,11.130,1.936
03/02/1984,11.130,1.936
03/03/1984,11.130,1.936
03/04/1984,11.133,1.939
03/05/1984,11.273,2.122
03/06/1984,11.282,2.129
03/07/1984,11.285,2.131
03/08/1984,11.287,2.132
03/09/1984,11.287,2.132
03/10/1984,11.288,2.133
03/11/1984,11.316,2.160
03/12/1984,11.322,2.170
03/13/1984,11.376,2.218
03/14/1984,11.399,2.226
03/15/1984,11.839,2.302
03/16/1984,11.845,2.304
03/17/1984,11.845,2.304
03/18/1984,11.845,2.304
03/19/1984,11.853,2.307
03/20/1984,12.050,2.436
03/21/1984,12.359,2.557
03/22/1984,12.694,2.884
03/23/1984,12.739,2.913
03/24/1984,12.739,2.891
03/25/1984,12.739,2.794
03/26/1984,12.739,2.781
03/27/1984,12.739,2.752
03/28/1984,12.739,2.674
03/29/1984,12.739,2.633
03/30/1984,12.739,2.607
03/31/1984,12.739,2.582
04/01/1984,12.739,2.532
04/02/1984,12.739,2.359
04/03/1984,12.739,2.109
04/04/1984,12.739,1.944
04/05/1984,12.739,1.681
04/06/1984,12.739,1.467
04/07/1984,12.739,1.393
04/08/1984,12.739,1.203
04/09/1984,12.739,0.985
04/10/1984,12.739,0.772
04/11/1984,12.739,0.643
04/12/1984,12.770,0.507
04/13/1984,13.132,0.322
04/14/1984,13.366,0.271
04/15/1984,13.438,0.220
04/16/1984,13.533,0.186
04/17/1984,13.545,0.170
04/18/1984,13.551,0.149
04/19/1984,13.563,0.127
04/20/1984,13.591,0.116
04/21/1984,13.591,0.076
04/22/1984,13.644,0.052
04/23/1984,13.766,0.037
04/24/1984,13.781,0.022
04/25/1984,13.781,0.007
04/26/1984,13.829,0.000
04/27/1984,13.862,0.000
04/28/1984,14.064,0.000
04/29/1984,14.105,0.000
04/30/1984,15.571,0.008
05/01/1984,15.707,0.045
05/02/1984,15.707,0.040
05/03/1984,15.738,0.006
05/04/1984,15.754,0.001
05/05/1984,15.759,0.000
05/06/1984,15.810,0.000
05/07/1984,16.026,0.000
05/08/1984,16.162,0.000
05/09/1984,16.323,0.002
05/10/1984,16.331,0.000
05/11/1984,16.349,0.000
05/12/1984,16.363,0.000
05/13/1984,16.737,0.000
05/14/1984,16.752,0.000
05/15/1984,16.752,0.000
05/16/1984,16.753,0.000
05/17/1984,16.789,0.000
05/18/1984,16.793,0.000
05/19/1984,16.793,0.000
05/20/1984,16.793,0.000
05/21/1984,16.793,0.000
05/22/1984,16.831,0.000
05/23/1984,16.848,0.000
05/24/1984,16.879,0.000
05/25/1984,17.148,0.000
05/26/1984,17.251,0.000
05/27/1984,17.251,0.000
05/28/1984,17.262,0.000
05/29/1984,17.266,0.000
05/30/1984,17.267,0.000
05/31/1984,17.268,0.000
06/01/1984,17.272,0.000
06/02/1984,17.406,0.000
06/03/1984,17.429,0.000
06/04/1984,17.429,0.000
06/05/1984,17.453,0.000
06/06/1984,17.610,0.000
06/07/1984,17.711,0.000
06/08/1984,18.611,0.000
06/09/1984,18.642,0.000
06/10/1984,18.985,0.000
06/11/1984,19.006,0.000
06/12/1984,19.407,0.000
06/13/1984,19.652,0.000
06/14/1984,19.656,0.000
06/15/1984,19.663,0.000
06/16/1984,19.717,0.000
06/17/1984,20.321,0.000
06/18/1984,20.514,0.000
06/19/1984,20.514,0.000
06/20/1984,20.514,0.000
06/21/1984,20.520,0.000
06/22/1984,20.545,0.000
06/23/1984,20.569,0.000
06/24/1984,20.579,0.000
06/25/1984,20.582,0.000
06/26/1984,20.610,0.000
06/27/1984,21.550,0.000
06/28/1984,21.583,0.000
06/29/1984,21.586,0.000
06/30/1984,21.586,0.000
07/01/1984,21.586,0.000
07/02/1984,21.586,0.000
07/03/1984,21.636,0.000
07/04/1984,21.712,0.000
07/05/1984,21.725,0.000
07/06/1984,21.877,0.000
07/07/1984,21.882,0.000
07/08/1984,21.883,0.000
07/09/1984,21.900,0.000
07/10/1984,22.009,0.000